Stations météo

Publicité
Calvi, France (7754): Température de l'air & dewpoint: 11.08.2019 17:00:00 - 17.08.2019 17:00:00 (CEST)Calvi, France (7754): Température de l'air 5cm: 11.08.2019 17:00:00 - 17.08.2019 17:00:00 (CEST)Calvi, France (7754): Vitesse du vent & gusts: 11.08.2019 17:00:00 - 17.08.2019 17:00:00 (CEST)Calvi, France (7754): Direction du vent: 11.08.2019 17:00:00 - 17.08.2019 17:00:00 (CEST)Calvi, France (7754): reduced air pressure: 11.08.2019 17:00:00 - 17.08.2019 17:00:00 (CEST)Calvi, France (7754): visibility: 11.08.2019 17:00:00 - 17.08.2019 17:00:00 (CEST)Calvi, France (7754): Quantités de précipitations: 11.08.2019 17:00:00 - 17.08.2019 17:00:00 (CEST)
Date & Time tt [°C] td [°C] tt 5cm [°C] ff [km/h] ff [knt] fx [km/h] fx [knt] dd ppp [hPa] vv [km] rr [mm]
17.08.2019 17:00:00 27,3 20,1 30,8 17 9 37 20 N 1016,3 59 0,0
17.08.2019 16:00:00 28,1 20,4 31,9 12 6 22 12 N 1016,5 19 0,0
17.08.2019 15:00:00 27,9 20,5 31,3 11 6 24 13 N 1016,6 32 0,0
17.08.2019 14:00:00 27,9 20,2 30,8 9 5 24 13 NNE 1016,8 18 0,0
17.08.2019 13:00:00 28,5 20,5 29,9 9 5 22 12 NNE 1017,0 20 0,0
17.08.2019 12:00:00 27,2 20,0 29,6 10 5 23 12 NNW 1017,2 31 0,0
17.08.2019 11:00:00 27,2 20,0 28,3 10 6 21 11 NNW 1017,2 20 0,0
17.08.2019 10:00:00 26,7 19,8 27,2 8 4 15 8 NNE 1017,0 20 0,0
17.08.2019 09:00:00 25,5 19,4 25,5 3 2 9 5 SE 1017,1 40 0,0
17.08.2019 08:00:00 22,9 19,3 20,2 4 2 10 5 ESE 1016,9 34 0,0
17.08.2019 07:00:00 20,4 18,2 19,8 5 3 11 6 SSW 1016,4 23 0,0
17.08.2019 06:00:00 21,7 18,5 20,5 5 3 7 4 S 1016,1 27 0,0
17.08.2019 05:00:00 23,1 19,1 23,2 2 1 6 3 W 1016,1 37 0,0
17.08.2019 04:00:00 23,0 19,0 23,0 4 2 9 5 ENE 1016,2 40 0,0
17.08.2019 03:00:00 22,7 18,9 21,7 8 5 13 7 SSE 1016,4 37 0,0
17.08.2019 02:00:00 21,5 18,5 20,5 5 3 13 7 SSW 1016,6 36 0,0
17.08.2019 01:00:00 20,6 17,6 20,5 5 3 11 6 S 1016,7 18 0,0
17.08.2019 00:00:00 21,3 18,1 20,9 3 2 11 6 S 1016,7 38 0,0
16.08.2019 23:00:00 21,7 18,1 21,5 8 4 13 7 SSE 1016,3 39 0,0
16.08.2019 22:00:00 23,0 18,3 22,3 4 2 8 5 S 1016,2 29 0,0
16.08.2019 21:00:00 24,2 18,4 24,0 5 3 13 7 E 1015,2 40 0,0
16.08.2019 20:00:00 25,4 18,3 26,1 10 5 16 9 NNE 1014,8 49 0,0
16.08.2019 19:00:00 25,6 19,7 26,7 11 6 19 10 N 1014,5 43 0,0
16.08.2019 18:00:00 26,6 19,7 28,8 11 6 19 11 NNW 1014,6 43 0,0
16.08.2019 17:00:00 27,6 19,9 30,5 11 6 22 12 NNW 1014,8 60 0,0
16.08.2019 16:00:00 28,2 19,7 31,7 14 8 26 14 N 1014,9 57 0,0
16.08.2019 15:00:00 28,5 19,4 32,2 16 8 31 17 N 1015,2 41 0,0
16.08.2019 14:00:00 27,9 19,4 32,6 18 10 31 17 N 1015,1 20 0,0
16.08.2019 13:00:00 27,1 18,9 32,0 15 8 28 15 NNW 1015,3 20 0,0
16.08.2019 12:00:00 27,5 18,8 32,0 18 10 29 16 N 1015,3 33 0,0
16.08.2019 11:00:00 28,1 17,3 30,7 14 7 29 16 NW 1015,0 60 0,0
16.08.2019 10:00:00 28,4 13,5 29,2 9 5 16 8 NW 1014,5 57 0,0
16.08.2019 09:00:00 27,2 13,9 26,2 8 4 18 10 NW 1014,4 49 0,0
16.08.2019 08:00:00 24,2 12,2 20,7 4 2 10 6 NW 1014,1 55 0,0
16.08.2019 07:00:00 22,5 11,2 20,8 5 3 22 12 SE 1013,3 19 0,0
16.08.2019 06:00:00 21,9 11,3 20,9 14 7 25 14 S 1013,1 60 0,0
16.08.2019 05:00:00 23,3 12,6 22,6 13 7 29 16 S 1013,0 60 0,0
16.08.2019 04:00:00 24,2 13,4 23,6 19 10 35 19 SW 1013,1 60 0,0
16.08.2019 03:00:00 24,4 13,9 23,9 22 12 40 22 SSW 1013,7 60 0,0
16.08.2019 02:00:00 25,2 13,1 24,8 24 13 44 24 SSW 1013,8 60 0,0
16.08.2019 01:00:00 25,8 11,9 24,0 18 10 32 17 SSW 1013,9 60 0,0
16.08.2019 00:00:00 25,0 12,6 24,2 17 9 32 17 S 1014,6 60 0,0
15.08.2019 23:00:00 24,7 14,2 24,3 20 11 26 14 S 1015,0 60 0,0
15.08.2019 22:00:00 25,2 13,1 23,8 8 4 23 13 S 1015,1 60 0,0
15.08.2019 21:00:00 26,0 11,7 25,3 11 6 25 13 S 1014,5 60 0,0
15.08.2019 20:00:00 26,8 10,1 26,7 14 8 38 21 SW 1014,1 60 0,0
15.08.2019 19:00:00 27,3 15,6 28,7 22 12 37 20 SW 1013,9 55 0,0
15.08.2019 18:00:00 29,5 16,0 31,5 19 10 36 19 SSW 1013,7 20 0,0
15.08.2019 17:00:00 29,6 12,5 33,6 19 10 37 20 SW 1014,3 46 0,0
15.08.2019 16:00:00 29,3 15,8 33,3 24 13 44 24 SW 1014,3 54 0,0
15.08.2019 15:00:00 30,5 16,9 36,2 18 10 32 17 WSW 1014,1 58 0,0
15.08.2019 14:00:00 30,6 18,3 32,5 16 8 36 19 E 1014,1 52 0,0
15.08.2019 13:00:00 29,1 17,9 33,7 19 10 29 15 NNE 1014,9 19 0,0
15.08.2019 12:00:00 28,3 14,5 31,4 14 8 24 13 N 1015,3 60 0,0
15.08.2019 11:00:00 27,2 16,8 30,3 16 9 24 13 N 1015,6 60 0,0
15.08.2019 10:00:00 27,1 14,1 28,2 4 2 9 5 N 1015,4 58 0,0
15.08.2019 09:00:00 24,7 16,7 22,6 2 1 6 3 SSW 1015,8 48 0,0
15.08.2019 08:00:00 20,9 14,3 16,7 6 3 13 7 S 1016,0 51 0,0
15.08.2019 07:00:00 16,5 12,6 15,9 9 5 11 6 S 1015,6 53 0,0
15.08.2019 06:00:00 16,7 13,2 16,3 6 4 13 7 S 1015,3 43 -
15.08.2019 05:00:00 17,4 14,7 16,9 9 5 15 8 SSW 1015,2 34 0,0
15.08.2019 04:00:00 17,9 15,2 17,5 9 5 12 7 SSW 1015,4 39 0,0
15.08.2019 03:00:00 18,7 15,9 17,8 9 5 13 7 S 1015,8 30 0,0
15.08.2019 02:00:00 19,2 16,1 18,9 7 4 15 8 S 1015,7 36 0,0
15.08.2019 01:00:00 20,9 16,7 19,9 10 6 18 10 SSW 1016,0 34 0,0
15.08.2019 00:00:00 22,1 17,0 21,4 9 5 23 12 S 1015,4 38 0,0
14.08.2019 23:00:00 22,9 17,4 22,7 20 11 29 16 S 1014,9 45 0,0
14.08.2019 22:00:00 23,2 17,4 22,8 11 6 20 11 S 1014,8 43 0,0
14.08.2019 21:00:00 23,9 17,6 23,9 11 6 18 10 SE 1014,4 40 0,0
14.08.2019 20:00:00 25,1 17,6 25,7 5 3 18 10 ENE 1013,9 53 0,0
14.08.2019 19:00:00 27,0 17,2 28,4 13 7 24 13 SSW 1013,3 52 0,0
14.08.2019 18:00:00 28,7 16,9 32,1 10 5 23 12 NW 1013,2 59 0,0
14.08.2019 17:00:00 28,8 16,4 34,3 10 6 23 12 NW 1013,0 60 0,0
14.08.2019 16:00:00 28,6 16,8 33,8 14 8 28 15 NW 1013,2 55 0,0
14.08.2019 15:00:00 29,0 16,2 34,1 10 5 28 15 N 1013,4 20 0,0
14.08.2019 14:00:00 29,6 16,4 33,0 14 8 25 13 S 1013,2 43 0,0
14.08.2019 13:00:00 29,0 15,5 30,5 11 6 32 17 SSW 1013,3 20 0,0
14.08.2019 12:00:00 28,9 14,7 30,7 9 5 25 14 SSW 1013,2 52 0,0
14.08.2019 11:00:00 28,2 11,3 28,9 10 5 17 9 N 1013,1 56 0,0
14.08.2019 10:00:00 27,1 10,3 26,6 7 4 17 9 NE 1013,1 59 0,0
14.08.2019 09:00:00 25,6 9,8 25,7 10 5 16 9 NNW 1012,7 58 0,0
14.08.2019 08:00:00 24,1 10,4 17,7 5 3 13 7 SW 1012,2 54 0,0
14.08.2019 07:00:00 18,5 7,6 17,3 5 3 13 7 W 1011,7 60 0,0
14.08.2019 06:00:00 21,9 6,5 20,4 5 3 28 15 W 1011,0 60 0,0
14.08.2019 05:00:00 23,8 6,6 20,7 19 10 29 16 S 1011,2 60 0,0
14.08.2019 04:00:00 23,7 7,3 22,1 23 12 29 16 S 1011,4 60 0,0
14.08.2019 03:00:00 24,8 6,5 23,2 15 8 37 20 SW 1011,2 60 0,0
14.08.2019 02:00:00 23,7 7,7 22,9 25 14 48 26 SSW 1011,3 60 0,0
14.08.2019 01:00:00 23,9 9,1 23,4 29 16 46 25 SSW 1011,3 60 0,0
14.08.2019 00:00:00 23,9 10,6 22,2 28 15 47 25 SSW 1011,1 60 0,0
13.08.2019 23:00:00 23,1 14,1 22,5 26 14 41 22 S 1011,6 49 0,0
13.08.2019 22:00:00 23,4 14,4 22,9 27 15 40 22 SSW 1011,7 50 0,0
13.08.2019 21:00:00 24,2 13,4 23,8 17 9 38 21 SSW 1011,1 56 0,0
13.08.2019 20:00:00 25,2 13,7 25,2 19 10 35 19 S 1010,6 54 0,0
13.08.2019 19:00:00 26,0 13,8 26,4 18 10 40 22 SSW 1010,1 59 0,0
13.08.2019 18:00:00 28,1 12,4 29,5 25 13 44 24 SSW 1010,4 53 0,0
13.08.2019 17:00:00 30,3 12,2 31,7 23 12 46 25 SSW 1010,3 38 0,0
13.08.2019 16:00:00 29,1 12,1 31,4 27 15 53 28 SW 1010,9 29 0,0
13.08.2019 15:00:00 28,0 16,0 30,0 31 17 58 32 SW 1011,4 29 0,0
13.08.2019 14:00:00 29,1 15,6 31,7 30 16 54 29 WSW 1011,5 20 0,0
13.08.2019 13:00:00 29,0 15,9 32,6 29 15 49 27 WSW 1011,6 20 0,0
13.08.2019 12:00:00 30,0 15,7 32,0 22 12 45 25 SW 1011,8 58 0,0
13.08.2019 11:00:00 29,1 16,3 30,4 27 14 40 22 SW 1012,4 58 0,0
13.08.2019 10:00:00 28,6 14,4 29,9 17 9 29 16 SW 1012,8 60 0,0
13.08.2019 09:00:00 28,2 16,1 27,2 13 7 29 16 SSW 1012,6 60 0,0
13.08.2019 08:00:00 26,1 18,2 24,1 14 8 21 11 SSE 1012,2 43 0,0
13.08.2019 07:00:00 24,7 18,2 22,6 10 5 19 11 SE 1012,3 27 0,0
13.08.2019 06:00:00 24,9 18,1 21,1 16 8 21 12 SSE 1011,9 28 0,0
13.08.2019 05:00:00 23,0 18,1 22,1 5 3 19 10 W 1012,0 28 0,0
13.08.2019 04:00:00 25,2 19,1 24,1 16 8 24 13 SSE 1012,2 38 0,0
13.08.2019 03:00:00 25,0 19,1 24,1 7 4 16 8 SSE 1012,4 34 0,0
13.08.2019 02:00:00 25,1 19,7 23,9 11 6 16 9 ESE 1012,5 32 0,0
13.08.2019 01:00:00 24,9 20,6 23,6 7 4 13 7 SSE 1012,7 21 0,0
13.08.2019 00:00:00 25,7 20,7 24,3 8 4 21 11 ESE 1012,7 27 0,0
12.08.2019 23:00:00 25,4 21,7 24,7 4 2 16 9 ESE 1012,9 17 0,0
12.08.2019 22:00:00 26,0 21,7 25,5 8 4 25 13 ENE 1013,2 20 0,0
12.08.2019 21:00:00 26,8 21,3 23,8 13 7 39 21 W 1012,4 27 0,0
12.08.2019 20:00:00 30,6 14,2 24,0 22 12 43 23 SW 1011,9 15 0,0
12.08.2019 19:00:00 28,9 19,0 28,2 5 3 39 21 WSW 1010,9 44 0,0
12.08.2019 18:00:00 28,2 21,0 28,4 9 5 22 12 SW 1011,3 33 0,0
12.08.2019 17:00:00 29,5 20,1 28,0 3 1 17 9 WSW 1013,0 39 0,0
12.08.2019 16:00:00 28,5 21,3 26,6 9 5 24 13 NW 1014,1 28 0,0
12.08.2019 15:00:00 28,7 23,1 30,9 12 6 24 13 NNW 1012,2 24 0,0
12.08.2019 14:00:00 28,9 23,8 30,8 18 10 33 18 N 1012,0 28 0,0
12.08.2019 13:00:00 30,7 21,2 32,6 12 7 21 11 W 1012,1 44 0,0
12.08.2019 12:00:00 29,5 20,9 30,1 3 2 14 8 ESE 1012,3 20 0,0
12.08.2019 11:00:00 27,6 21,6 28,4 9 5 22 12 N 1013,1 28 0,0
12.08.2019 10:00:00 28,5 21,0 29,3 8 5 15 8 NW 1013,2 31 0,0
12.08.2019 09:00:00 27,7 21,3 26,3 8 4 13 7 NNW 1012,9 37 0,0
12.08.2019 08:00:00 24,8 19,2 22,5 9 5 13 7 WSW 1012,1 24 0,0
12.08.2019 07:00:00 22,7 18,2 21,5 3 2 20 11 SW 1012,5 32 0,0
12.08.2019 06:00:00 22,1 18,5 21,2 4 2 16 9 NE 1012,0 33 0,0
12.08.2019 05:00:00 22,3 18,9 21,7 13 7 16 9 SSW 1012,1 27 0,0
12.08.2019 04:00:00 23,2 19,4 21,6 9 5 18 10 S 1012,5 26 0,0
12.08.2019 03:00:00 22,1 19,5 21,4 14 8 16 9 S 1013,3 23 0,0
12.08.2019 02:00:00 22,4 19,6 22,1 6 4 10 5 S 1013,4 20 0,0
12.08.2019 01:00:00 23,1 20,1 22,7 5 3 8 5 S 1013,7 16 0,0
12.08.2019 00:00:00 23,9 20,4 23,4 2 1 12 7 WSW 1013,6 24 0,0
11.08.2019 23:00:00 24,9 20,4 24,1 10 5 14 7 SSW 1013,7 21 0,0
11.08.2019 22:00:00 24,9 20,6 24,7 8 5 11 6 SSE 1013,4 28 0,0
11.08.2019 21:00:00 26,5 21,5 26,2 4 2 9 5 NE 1013,3 25 0,0
11.08.2019 20:00:00 27,9 20,7 28,8 8 5 16 9 N 1013,0 19 0,0
11.08.2019 19:00:00 28,9 19,8 31,5 11 6 18 10 N 1012,7 38 0,0
11.08.2019 18:00:00 29,3 22,5 33,4 9 5 22 12 NNW 1012,9 20 0,0
11.08.2019 17:00:00 29,7 22,9 34,6 12 7 28 15 NNW 1013,4 43 0,0

tt = Température de l'air
td = dewpoint
tt 5cm = Température de l'air 5cm
ff = Vitesse du vent
fx = gusts
dd = Direction du vent
ppp = reduced air pressure
vv = visibility
rr = Quantités de précipitations

stations d'obs. à proximité